Change the Weather History Date:

Friday, March 21, 2014

  Actual Average Record
Temperature  
Mean Temperature 70 °F 68 °F  
Max Temperature 85 °F 81 °F 102 °F (2004)
Min Temperature 54 °F 55 °F 33 °F (1894)
Degree Days  
Heating Degree Days 0 1  
Month to date heating degree days 4 41  
Since 1 July heating degree days 365 664  
Cooling Degree Days 5 4  
Month to date cooling degree days 120 68  
Year to date cooling degree days 234 104  
Growing Degree Days 20 (Base 50)    
Moisture  
Dew Point 25 °F    
Average Humidity 25    
Maximum Humidity 40    
Minimum Humidity 9    
Precipitation  
Precipitation 0.00 in 0.01 in 0.54 in (1893)
Month to date precipitation 0.07 0.24  
Year to date precipitation 0.07 1.00  
Sea Level Pressure  
Sea Level Pressure 29.84 in    
Wind  
Wind Speed 5 mph (SSW)    
Max Wind Speed 13 mph    
Max Gust Speed 15 mph    
Visibility 10 miles    
Events      
T = Trace of Precipitation, MM = Missing Value Source: NWS Daily Summary

Daily Weather History Graph

Daily Weather History Graph

Search for Another Location

Airport or City:

Trip Planner

Search our weather history database for the weather conditions in past years. The results will help you decide how hot, cold, wet, or windy it might be!

Date:

Astronomy

Mar. 21, 2014 Rise Set
Actual Time 6:40 AM MST 6:50 PM MST
Civil Twilight 6:16 AM MST 7:15 PM MST
Nautical Twilight 5:47 AM MST 7:44 PM MST
Astronomical Twilight 5:18 AM MST 8:13 PM MST
Moon 11:59 PM MST (3/21) 9:50 AM MST (3/21)
Length of Visible Light 12h 59m
Length of Day
12h 10m
Waning Gibbous, 74% of the Moon is Illuminated
Mar 21
Waning Gibbous
Mar 23
Last Quarter
Mar 30
New
Apr 7
First Quarter
Apr 15
Full

Hourly Weather History & Observations

Time (MST) Temp. Dew Point Humidity Pressure Visibility Wind Dir Wind Speed Gust Speed Precip Events Conditions
12:57 AM 59.0 °F 19.0 °F 21% 29.86 in 10.0 mi South 4.6 mph - N/A   Clear
1:57 AM 59.0 °F 23.0 °F 25% 29.86 in 10.0 mi SSE 8.1 mph - N/A   Clear
2:57 AM 55.9 °F 23.0 °F 28% 29.84 in 10.0 mi SSE 6.9 mph - N/A   Clear
3:57 AM 55.9 °F 24.1 °F 29% 29.83 in 10.0 mi Calm Calm - N/A   Clear
4:57 AM 55.0 °F 21.0 °F 27% 29.83 in 10.0 mi South 5.8 mph - N/A   Clear
5:57 AM 55.0 °F 17.1 °F 23% 29.84 in 10.0 mi Calm Calm - N/A   Clear
6:57 AM 55.9 °F 17.1 °F 22% 29.86 in 10.0 mi SSE 3.5 mph - N/A   Clear
7:57 AM 59.0 °F 15.1 °F 18% 29.88 in 10.0 mi Calm Calm - N/A   Partly Cloudy
8:57 AM 66.2 °F 19.4 °F 17% 29.57 in 10.0 mi SSE 4.6 mph - N/A   Partly Cloudy
9:57 AM 73.0 °F 26.1 °F 17% 29.91 in 10.0 mi Variable 3.5 mph - N/A   Partly Cloudy
10:57 AM 75.9 °F 24.1 °F 15% 29.91 in 10.0 mi Variable 3.5 mph - N/A   Partly Cloudy
11:57 AM 79.0 °F 21.9 °F 12% 29.91 in 10.0 mi West 8.1 mph - N/A   Partly Cloudy
12:57 PM 80.1 °F 23.0 °F 12% 29.88 in 10.0 mi SSW 4.6 mph - N/A   Partly Cloudy
1:57 PM 82.0 °F 25.0 °F 12% 29.86 in 10.0 mi SSW 4.6 mph - N/A   Scattered Clouds
2:57 PM 82.9 °F 23.0 °F 11% 29.83 in 10.0 mi Variable 5.8 mph - N/A   Scattered Clouds
3:57 PM 84.9 °F 19.9 °F 9% 29.81 in 10.0 mi SSW 5.8 mph - N/A   Scattered Clouds
4:57 PM 84.0 °F 21.9 °F 10% 29.81 in 10.0 mi WNW 5.8 mph - N/A   Scattered Clouds
5:57 PM 82.9 °F 23.0 °F 11% 29.80 in 9.0 mi WNW 6.9 mph - N/A   Clear
6:57 PM 79.0 °F 26.1 °F 14% 29.80 in 8.0 mi WNW 5.8 mph - N/A   Clear
7:57 PM 75.9 °F 24.1 °F 15% 29.81 in 10.0 mi NW 4.6 mph - N/A   Clear
8:57 PM 71.1 °F 28.9 °F 21% 29.82 in 10.0 mi SSW 9.2 mph - N/A   Clear
9:57 PM 66.9 °F 41.0 °F 39% 29.84 in 10.0 mi South 8.1 mph - N/A   Clear
10:57 PM 64.9 °F 39.0 °F 39% 29.85 in 10.0 mi South 8.1 mph - N/A   Clear
11:57 PM 64.0 °F 44.1 °F 48% 29.86 in 10.0 mi Calm Calm - N/A   Clear